Вернуться в каталог

YAM-15

АктивенСвязьSSO
NORAD 68997·PAYLOAD·🇮🇳 India

Запущен May 3, 2026 с Vandenberg Space Force Base

Loading…

Ближайшие Пролёты (ближайшие 24 часа)

TLE

СвежийSource: Space-Track

Эпоха: Sep 14, 2026, 22:57 UTC

1 68997U 26100T   26257.95653695  .00001229  00000-0  13176-3 0  9993
2 68997  97.7764 153.9169 0001933  82.8122 277.3316 14.90430650 20074

Отслеживайте YAM-15 в реальном времени с AllMySat

Download on the App Store